Regional Weather Roundup
Issued by NWS

Home | Current Version | Previous Version | Text Only | Print | Product List | Glossary On
Versions: 1 2 3 4 5 6 7 8 9 10 11 12 13 14 15 16 17 18 19 20 21 22 23 24 25 26 27 28 29 30 31 32 33 34 35 36 37 38 39 40 41 42 43 44 45 46 47 48 49 50
000
ASUS43 KDTX 242310
RWRMI
MICHIGAN HOURLY REGIONAL WEATHER ROUNDUP
NATIONAL WEATHER SERVICE DETROIT/PONTIAC MI
700 PM EDT SUN MAY 24 2015

NOTE: "FAIR" INDICATES FEW OR NO CLOUDS BELOW 12,000 FEET WITH NO
SIGNIFICANT WEATHER AND/OR OBSTRUCTION TO VISIBILITY.

MIZ047>049-052>055-059>063-066>070-074>076-081>083-250000-
SOUTHEAST LOWER MICHIGAN

CITY           SKY/WX    TMP DP  RH WIND       PRES   REMARKS
ADRIAN         CLOUDY    81  53  37 S9        30.10F
ALMA           LGT RAIN  66  58  75 NE5       30.11S
ANN ARBOR      CLOUDY    74  53  48 E9        30.12F
BAD AXE        CLOUDY    69  48  46 SW10      30.15F
CARO           DRIZZLE   67  57  69 CALM      30.13F
DETROIT CITY   CLOUDY    75  51  43 E6        30.14F
DETROIT        CLOUDY    77  50  38 E7        30.13F
FLINT          CLOUDY    73  55  53 E8        30.12F
GROSSE ILE     CLOUDY    73  52  46 E5        30.11F
HILLSDALE      CLOUDY    78  55  45 SE3       30.09F
HOWELL         CLOUDY    73  53  48 SE6       30.12F

CITY           SKY/WX    TMP DP  RH WIND       PRES   REMARKS
JACKSON        CLOUDY    73  55  53 E10       30.10F
LAMBERTVILLE   CLOUDY    75  54  46 E8        30.12F
LANSING        LGT RAIN  72  55  55 SE8       30.09F
LAPEER         CLOUDY    69  55  61 CALM      30.15F
MASON          CLOUDY    71  55  56 E5        30.10F
MONROE         CLOUDY    73  50  43 E8        30.11F
MT. CLEMENS    CLOUDY    73  57  59 E5        30.13F
PONTIAC        CLOUDY    73  51  46 E6        30.13F
PORT HOPE        N/A     73  48  41 SW8G20    30.13S
PORT HURON     LGT RAIN  72  54  53 CALM      30.16F
TRI CITIES     LGT RAIN  69  57  65 CALM      30.12F
MIDLAND        FAIR      68  55  63 E3        30.10F
TROY           CLOUDY    78  46  33 E5        30.15F
SAGINAW HB     CLOUDY    70  50  49 E5        30.11F
$$
MIZ043>046-050>051-056>058-064>065-071>073-077>080-250000-
SOUTHWEST LOWER MICHIGAN

CITY           SKY/WX    TMP DP  RH WIND       PRES   REMARKS
BATTLE CREEK   CLOUDY    75  56  51 E6        30.07F
BENTON HARBOR  CLOUDY    75  58  55 E9        29.98F
BIG RAPIDS     LGT RAIN  63  55  74 CALM      30.11S
COLDWATER      CLOUDY    77  55  47 SE9       30.06F
FREMONT        RAIN      61  57  87 NE6       30.08S
HOLLAND        CLOUDY    70  56  61 E10       30.04F
GRAND RAPIDS   LGT RAIN  70  54  56 E10       30.06F
IONIA          FAIR      71  53  53 E9        30.07F
KALAMAZOO      CLOUDY    77  56  48 E6        30.04F
LUDINGTON      RAIN      62  59  88 SE6       30.08F
MARSHALL       CLOUDY    75  56  52 E6        30.06F
MOUNT PLEASANT CLOUDY    66  58  76 E3        30.11S
MUSKEGON       LGT RAIN  63  57  81 NE9       30.06S
SOUTH HAVEN    CLOUDY    73  56  53 E9        30.00F
$$
MIZ016>042-250000-
NORTHERN LOWER MICHIGAN

CITY           SKY/WX    TMP DP  RH WIND       PRES   REMARKS
ALPENA         CLOUDY    76  47  35 S13       30.07F
BEAVER ISLAND  CLOUDY    56  48  73 SW13G18   30.08F
BELLAIRE       CLOUDY    68  50  51 CALM      30.08F
CADILLAC       LGT RAIN  60  56  85 SE5       30.11F
CHARLEVOIX     CLOUDY    62  50  64 SW6       30.11F
FRANKFORT      LGT RAIN  63  54  72 SE3       30.09F
GAYLORD        CLOUDY    69  48  47 SW15      30.10F
GRAYLING       CLOUDY    66  50  55 S8        30.12F
HARBOR SPRINGS CLOUDY    60  49  65 W6        30.08F
HOUGHTON LAKE  LGT RAIN  62  53  72 S3        30.13F
MANISTEE       CLOUDY    61  55  82 E5        30.09F
OSCODA         CLOUDY    72  47  41 SW14G20   30.11S
PELLSTON       CLOUDY    66  48  52 W12G17    30.09F
ROGERS CITY    CLOUDY    61  46  56 N3        30.10S
TRAVERSE CITY  LGT RAIN  66  53  63 S6        30.09S
$$
MIZ007>008-015-250000-
EASTERN UPPER MICHIGAN

CITY           SKY/WX    TMP DP  RH WIND       PRES   REMARKS
KINROSS        CLOUDY    66  48  52 W9        30.07F
MACKINAC ISLAN CLOUDY    56  46  67 W7        30.08F
NEWBERRY       CLOUDY    65  49  56 SW18G25   30.04F
S. S. MARIE    CLOUDY    68  47  46 SW9G21    30.05S
MUNISING         N/A     74  47  38 S9G20     29.99F
$$
MIZ004>006-011>014-085-250000-
CENTRAL UPPER MICHIGAN

CITY           SKY/WX    TMP DP  RH WIND       PRES   REMARKS
MANISTIQUE     CLOUDY    54  47  78 S12G17    30.06F
ESCANABA       CLOUDY    63  52  67 S14       30.03S
MENOMINEE      CLOUDY    59  54  82 S5        30.05F
SAWYER-GWINN   SUNNY     73  50  43 S14       30.01S
$$
MIZ001>003-009>011-084-250000-
WESTERN UPPER MICHIGAN

CITY           SKY/WX    TMP DP  RH WIND       PRES   REMARKS
IRON MOUNTAIN  CLOUDY    66  53  63 S13       30.02S
HOUGHTON       CLOUDY    69  45  41 E3        29.98S
COPPER HARBOR    N/A     61  42  49 CALM      29.97F
IRONWOOD       CLOUDY    70  46  43 CALM      29.95S
$$

ABBREVIATIONS USED IN REMARKS
   TC - TEMPERATURE IN CELSIUS
  WCI - WIND CHILL INDEX
   HX - HEAT INDEX
  VSB - VISIBILITY



USA.gov is the U.S. government's official web portal to all federal, state and local government web resources and services.